Regional Weather Roundup
Issued by NWS

Home | Current Version | Previous Version | Text Only | Print | Product List | Glossary On
Versions: 1 2 3 4 5 6 7 8 9 10 11 12 13 14 15 16 17 18 19 20 21 22 23 24 25 26 27 28 29 30 31 32 33 34 35 36 37 38 39 40 41 42 43 44 45 46 47 48 49 50
323
ASUS45 KBOU 311507
RWRCO

WEATHER ROUNDUP FOR COLORADO
NATIONAL WEATHER SERVICE DENVER/BOULDER CO
900 AM MDT WED AUG 31 2016

NOTE: "FAIR" INDICATES FEW OR NO CLOUDS BELOW 12000 FEET WITH NO
SIGNIFICANT WEATHER AND/OR OBSTRUCTIONS TO VISIBILITY.

COZ001>005-013-030-031-311600-
...NORTHWEST COLORADO...

CITY           SKY/WX    TMP DP  RH WIND       PRES   REMARKS
CRAIG          FAIR      66  40  38 E8        30.30S
HAYDEN         FAIR      61  37  41 E12       30.33S
MEEKER         FAIR      62  42  47 CALM      30.32S
MOUNT WERNER   NOT AVBL
STEAMBOAT SPGS FAIR      55  40  57 CALM      30.36S
WALDEN         FAIR      50  37  62 CALM      30.46S
$$

COZ006>008-011-311600-
...WEST CENTRAL VALLEYS...

CITY           SKY/WX    TMP DP  RH WIND       PRES   REMARKS
GRAND JUNCTION FAIR      70  46  42 SE9       30.22R
MONTROSE       FAIR      67  44  43 CALM      30.31S
EAGLE          SUNNY     55  43  62 CALM      30.41S
RIFLE          FAIR      65  46  50 E6        30.29R
DELTA          FAIR      67  46  46 CALM      30.28R
NUCLA          FAIR     N/A N/A N/A E3        30.35S
$$

COZ017>023-064>068-311600-
...SOUTHWEST COLORADO...

CITY           SKY/WX    TMP DP  RH WIND       PRES   REMARKS
DURANGO        FAIR      61  46  57 CALM      30.38R
CORTEZ         PTSUNNY   65  51  60 CALM      30.32R
PAGOSA SPRINGS FAIR      59  43  56 CALM      30.44S
TELLURIDE      FAIR      55  44  66 CALM      30.53S
WOLF CREEK PAS FAIR      45  37  76 CALM      30.70S
$$

COZ009-010-012-014-032>034-037-058>063-311600-
...CENTRAL COLORADO...

CITY           SKY/WX    TMP DP  RH WIND       PRES   REMARKS
ASPEN          FAIR      57  42  57 E3        30.41F
BUENA VISTA    FAIR      53  44  72 N3        30.46S
COPPER MTN     FAIR      52  36  54 W8        30.68R
BERTHOUD PASS  FAIR      41  28  60 N12       30.70R
COTTONWOOD PAS FAIR      55  45  67 CALM      30.55S
GUNNISON       FAIR      52  41  66 CALM      30.48S
KREMMLING      FAIR      50  37  62 CALM      30.45F
LEADVILLE      FAIR      47  39  74 CALM      30.54S
MONARCH PASS   FAIR      45  37  76 SW8       30.78R
SALIDA         FAIR      55  45  69 NW3       30.52S
SUNLIGHT       FAIR      54  37  54 CALM      30.63R
WILKERSON PASS FAIR      46  41  81 SW5       30.66R
$$

COZ069>075-311600-
...SAN LUIS VALLEY/SANGRE DE CRISTO MOUNTAINS...

CITY           SKY/WX    TMP DP  RH WIND       PRES   REMARKS
ALAMOSA        FAIR      57  45  64 CALM      30.43S
LA VETA PASS   FAIR      54  43  66 MISG      30.58R
SAGUACHE       FAIR      55  43  62 NW12      30.46R
$$

COZ035-036-038>040-311600-
...NORTHERN COLORADO FRONT RANGE...

CITY           SKY/WX    TMP DP  RH WIND       PRES   REMARKS
DENVER INTL AP FOG       56  55  97 NW6       30.31S VSB 1/4
DMNS CITY PARK   N/A     64  54  70 NE5       30.31S
AURORA         MOSUNNY   62  53  74 NW6       30.32F
FRONT RANGE AP FOG       59  55  88 W7G17     30.32S VSB 1
ERIE MUNI ARPT CLOUDY    58  56  92 N3        30.30F FOG
BOULDER MUN AP FAIR      63  52  67 E3        30.30S
CENTENNIAL     FAIR      61  49  64 W3        30.33S
BROOMFIELD     MOSUNNY   63  50  63 N6        30.32F
FORT COLLINS   CLOUDY    59  57  94 N6        30.30S
LONGMONT       FAIR      63  57  81 E3        30.31F HAZE
$$

COZ041-046-047-076>085-087-088-311600-
...PIKES PEAK/PALMER DIVIDE AND SOUTHERN FOOTHILLS...

CITY           SKY/WX    TMP DP  RH WIND       PRES   REMARKS
COLO. SPRINGS  FAIR      63  53  70 CALM      30.36S
A. F. ACADEMY  FAIR      61  52  71 SE2       30.36S
SCHRIEVER AFB  NOT AVBL
ELLICOTT       NOT AVBL
FALCON         FAIR      61  52  71 CALM      30.40R
FORT CARSON    FAIR      63  51  64 NE3       30.33R
LIMON          FAIR      64  53  67 CALM      30.32R
MONUMENT HILL  FAIR      59  48  67 CALM      30.40S
TRINIDAD       FAIR      64  49  57 W9        30.34S
$$

COZ042>045-048>051-090-091-311600-
...NORTHEAST COLORADO...

CITY           SKY/WX    TMP DP  RH WIND       PRES   REMARKS
GREELEY ARPT   CLOUDY    59  55  88 CALM      30.30S
AKRON          FOG       60  58  92 E8        30.29R VSB 3/4
BURLINGTON     PTSUNNY   64  61  90 SW5       30.27R
WRAY           NOT AVBL
STERLING       CLOUDY    64  61  88 E3        30.26R
HOLYOKE        FAIR      63  61  94 SE5       30.27S
FORT MORGAN    CLOUDY    59  58  96 NE7       30.30R
$$

COZ086-089-092>099-311600-
...SOUTHEAST COLORADO...

CITY           SKY/WX    TMP DP  RH WIND       PRES   REMARKS
PUEBLO         FAIR      66  55  67 CALM      30.28S
LA JUNTA       CLOUDY    60  58  92 NW5       30.26S
LAMAR          FAIR      66  60  81 N3        30.23S
SPRINGFIELD      N/A     66  62  87 SE6       30.27R
$$




USA.gov is the U.S. government's official web portal to all federal, state and local government web resources and services.